This is the latest recevied weather packets stored in our database for station/object DL9GJ-6. If no packets are shown the sender has not sent any weather packets the latest 1 day(s).
| Time | Temp. | Humidity | Pressure | Rain* | Wind** | Luminosity | Snow |
|---|---|---|---|---|---|---|---|
| 1778059941 | 15.56° C | 70% | 1005.5 hPa | 0 mm | - | 371 W/m² | - |
| 1778059581 | 15.56° C | 71% | 1005.5 hPa | 0 mm | - | 393 W/m² | - |
| 1778059220 | 15.56° C | 72% | 1005.6 hPa | 0 mm | - | 377 W/m² | - |
| 1778058860 | 15.56° C | 73% | 1005.5 hPa | 0 mm | - | 423 W/m² | - |
| 1778058501 | 15° C | 75% | 1005.5 hPa | 0 mm | - | 490 W/m² | - |
| 1778058141 | 15° C | 73% | 1005.5 hPa | 0 mm | - | 514 W/m² | - |
| 1778057780 | 15° C | 77% | 1005.5 hPa | 0 mm | - | 731 W/m² | - |
| 1778057421 | 15° C | 76% | 1005.5 hPa | 0 mm | - | 612 W/m² | - |
| 1778055607 | 13.89° C | 81% | 1005.6 hPa | 0 mm | - | 370 W/m² | - |
| 1778054900 | 13.89° C | 81% | 1005.6 hPa | 0 mm | - | 256 W/m² | - |
| 1778054540 | 13.89° C | 82% | 1005.5 hPa | 0 mm | - | 267 W/m² | - |
| 1778054181 | 13.89° C | 82% | 1005.5 hPa | 0 mm | - | 245 W/m² | - |
| 1778054167 | 13.89° C | 82% | 1005.5 hPa | 0 mm | - | 245 W/m² | - |
| 1778053820 | 13.33° C | 83% | 1005.6 hPa | 0 mm | - | 233 W/m² | - |
| 1778053460 | 13.33° C | 83% | 1005.7 hPa | 0 mm | - | 210 W/m² | - |
| 1778053101 | 13.33° C | 84% | 1005.7 hPa | 0 mm | - | 232 W/m² | - |
| 1778052740 | 13.33° C | 84% | 1005.8 hPa | 0 mm | - | 234 W/m² | - |
| 1778052727 | 13.33° C | 84% | 1005.8 hPa | 0 mm | - | 234 W/m² | - |
| 1778052380 | 13.33° C | 85% | 1005.9 hPa | 0 mm | - | 240 W/m² | - |
| 1778052020 | 12.78° C | 85% | 1006 hPa | 0 mm | - | 233 W/m² | - |
| 1778051291 | 12.78° C | 88% | 1006 hPa | 0 mm | - | 150 W/m² | - |
| 1778049501 | 12.22° C | 89% | 1005.8 hPa | 0 mm | - | 197 W/m² | - |
| 1778049140 | 11.67° C | 91% | 1005.8 hPa | 0 mm | - | 288 W/m² | - |
| 1778049130 | 11.67° C | 91% | 1005.8 hPa | 0 mm | - | 288 W/m² | - |
| 1778048781 | 11.67° C | 92% | 1005.7 hPa | 0 mm | - | 324 W/m² | - |
* Rain latest hour (hover to see other rain measurements)
** Current wind speed in m/s (hover to see current wind gust speed)